{"data":{"norad_id":65270,"epoch":"2026-09-21T12:01:54.700320Z","epoch_age_seconds":75667,"freshness":"FRESH","line1":"1 65270U 25182D   26264.50132755  .00060580  32395-5  14884-3 0  9990","line2":"2 65270  96.5816 193.5442 0006558 110.1949 250.0035 15.96169372 63074","mean_motion":15.96169372,"eccentricity":0.0006558,"inclination_deg":96.5816,"raan_deg":193.5442,"arg_perigee_deg":110.1949,"mean_anomaly_deg":250.0035,"bstar":0.00014884,"rev_number":6307,"period_min":90.215989935685,"perigee_km":280.6883184856,"apogee_km":289.42776510241,"semimajor_km":6663.195041794,"source":"CELESTRAK","updated_at":"2026-09-22T09:00:30.246467Z"}}